{"data":{"norad_id":49163,"intl_designator":"2021-082AK","name":"STARLINK-3088","alt_names":[],"object_type":"PAYLOAD","status":"ACTIVE","operator":null,"country":"US","launch_date":"2021-09-14","launch_site_code":"AFWTR","launch_vehicle":null,"mission":null,"orbit_class":"UNKNOWN","rcs_meters":null,"size_class":null,"mass_kg":null,"dimensions":null,"purposes":["comms"],"wikipedia_slug":null,"has_3d_model":false,"image_url":null,"decayed_at":null,"tle_current":{"epoch":"2026-09-20T02:10:10.751808Z","epoch_age_seconds":76734,"freshness":"FRESH","line1":"1 49163U 21082AK  26263.09040222  .00000464  00000+0  47585-4 0  9990","line2":"2 49163  69.9982 145.7041 0003011 270.9526  89.1288 14.97521981276712","mean_motion":14.97521981,"eccentricity":0.0003011,"inclination_deg":69.9982,"raan_deg":145.7041,"arg_perigee_deg":270.9526,"mean_anomaly_deg":89.1288,"bstar":4.7585e-5,"rev_number":27671,"period_min":96.158855647542,"perigee_km":572.46229073041,"apogee_km":576.64920230236,"semimajor_km":6952.6927465164,"source":"CELESTRAK","updated_at":"2026-09-20T09:00:39.252109Z"}}}